Погода в Зеленино

Россия / Рязанская область     54°40′10″N   39°24′38″E
темп.,
°C
ветер,
м/с
пор.,
м/с
влажн.,
%
обл.,
%
осадки,
мм/ч
давл.,
гПа
погр.,
м
8 декабря, ср
ср800:00+1ююв39100100 2.6 1014364
03:00+1ю37100100 5.8 1015339
06:000ююз26100100 3.6 1015272
09:000сз12100100 5.2 1017240
12:00−1с4699100 3.1 1018207
15:00−3с4797100 4.9 1018240
18:00−3ссв5897100 0.8 1019282
21:00−5с5996100 1.3 1019248
9 декабря, чт
чт900:00−5ссв5895100 0.2 1020245
03:00−6с5895100 0.3 1020261
06:00−6ссв51094100 0.1 1020295
09:00−6с5994100 0.3 1022318
12:00−6ссв5994100 0.1 1023328
15:00−6ссв5109377 0.1 1024347
18:00−11с410935 0.0 1027209
21:00−13ссв410925 0.0 1028195
10 декабря, пт
пт1000:00−16с36965 0.0 103079
03:00−15ссв48955 0.0 1030133
06:00−16ссв49955 0.0 1031142
09:00−16св38955 0.0 1032141
12:00−12св37925 0.0 1032187
15:00−11св37925 0.0 1033170
18:00−13св38955 0.0 1034117
21:00−14всв38956 0.0 1034132
11 декабря, сб
сб1100:00−13всв389442 0.0 1034131
03:00−13всв37955 0.0 103597
06:00−13всв379441 0.0 1035112
09:00−12в31092100 0.0 1036191
12:00−8вюв4128561 0.0 1036338
15:00−8в498659 0.0 1036204
18:00−9вюв4128628 0.0 1036242
21:00−9вюв4118781 0.0 1037245
12 декабря, вс
вс1200:00−8юв51186100 0.0 1037249
03:00−7юв41184100 0.0 1037242
06:00−7юв5118460 0.0 1038242
09:00−7юв4108498 0.0 1038213
12:00−5юв4108393 0.0 1038290
15:00−6юв498687 0.0 1038186
18:00−6юв41085100 0.0 1038204
21:00−6юв41185100 0.0 1037236